This is the latest recevied weather packets stored in our database for station/object KJ4YLO. If no packets are shown the sender has not sent any weather packets the latest 10 day(s).
| Time | Temp. | Humidity | Pressure | Rain* | Wind** | Luminosity | Snow |
|---|---|---|---|---|---|---|---|
| 1777314611 | 17.78° C | 60% | 1023.6 hPa | 0 mm | - | 269 W/m² | - |
| 1777314309 | 17.78° C | 61% | 1023.6 hPa | 0 mm | - | 269 W/m² | - |
| 1777314005 | 17.78° C | 59% | 1023.9 hPa | 0 mm | - | 304 W/m² | - |
| 1777313703 | 17.78° C | 58% | 1023.9 hPa | 0 mm | - | 314 W/m² | - |
| 1777313400 | 17.78° C | 60% | 1023.9 hPa | 0 mm | - | 276 W/m² | - |
| 1777313096 | 17.22° C | 61% | 1023.6 hPa | 0 mm | - | 269 W/m² | - |
| 1777312792 | 16.67° C | 61% | 1023.6 hPa | 0 mm | - | 267 W/m² | - |
| 1777312489 | 16.11° C | 62% | 1023.9 hPa | 0 mm | - | 254 W/m² | - |
| 1777312186 | 16.11° C | 63% | 1023.9 hPa | 0 mm | - | 264 W/m² | - |
| 1777311884 | 17.22° C | 61% | 1023.9 hPa | 0 mm | - | 262 W/m² | - |
| 1777311581 | 16.67° C | 63% | 1023.6 hPa | 0 mm | - | 288 W/m² | - |
| 1777311278 | 16.67° C | 61% | 1023.6 hPa | 0 mm | - | 277 W/m² | - |
| 1777310976 | 17.22° C | 62% | 1023.6 hPa | 0 mm | - | 254 W/m² | - |
| 1777310674 | 17.22° C | 61% | 1023.9 hPa | 0 mm | - | 270 W/m² | - |
| 1777310371 | 16.67° C | 61% | 1023.9 hPa | 0 mm | - | 268 W/m² | - |
| 1777310067 | 16.67° C | 63% | 1024.3 hPa | 0 mm | - | 241 W/m² | - |
| 1777309766 | 16.11° C | 62% | 1023.9 hPa | 0 mm | - | 257 W/m² | - |
| 1777309463 | 16.67° C | 61% | 1024.3 hPa | 0 mm | - | 252 W/m² | - |
| 1777309160 | 16.67° C | 61% | 1023.9 hPa | 0 mm | - | 255 W/m² | - |
| 1777308858 | 16.67° C | 62% | 1024.6 hPa | 0 mm | - | 230 W/m² | - |
| 1777308553 | 16.67° C | 62% | 1024.3 hPa | 0 mm | - | 289 W/m² | - |
| 1777308249 | 16.67° C | 61% | 1024.3 hPa | 0 mm | - | 273 W/m² | - |
| 1777307944 | 16.67° C | 62% | 1024.3 hPa | 0 mm | - | 286 W/m² | - |
| 1777307643 | 16.67° C | 62% | 1024.6 hPa | 0 mm | - | 294 W/m² | - |
| 1777307339 | 16.11° C | 62% | 1024.6 hPa | 0 mm | - | 288 W/m² | - |
* Rain latest hour (hover to see other rain measurements)
** Current wind speed in m/s (hover to see current wind gust speed)